This demonstration page uses our WeatherBlox Daily Observations layout. Learn more.

Left ArrowRight Arrow

Hourly Observations for April 18, 2015

Temp ( °F °C ) Dew Point ( °F °C ) Humidity (%) Winds ( mph kmh ) Pressure ( in mb ) Visibility ( mi km ) Precip ( " mm )
12:16 am 00:16 Clear 55 13 45 7 67 67 Calm 30.06 1018 10 16.0934 N/A
12:36 am 00:36 Clear 54 12 45 7 72 72 Calm 30.09 1019 10 16.0934 N/A
12:55 am 00:55 Clear 54 12 43 6 67 67 Calm 30.03 1017 10 16.0934 N/A
1:16 am 01:16 Clear 54 12 41 5 63 63 Calm 30.09 1019 10 16.0934 N/A
1:36 am 01:36 Clear 54 12 43 6 67 67 Calm 30.09 1019 10 16.0934 N/A
1:55 am 01:55 Clear 54 12 41 5 63 63 Calm 30.09 1019 10 16.0934 N/A
2:16 am 02:16 Clear 52 11 45 7 77 77 Calm 30.09 1019 10 16.0934 N/A
2:36 am 02:36 Clear 52 11 46 8 82 82 Calm 30.09 1019 10 16.0934 N/A
2:55 am 02:55 Clear 50 10 46 8 88 88 SSE 3 6 30.09 1019 10 16.0934 N/A
3:16 am 03:16 Clear 52 11 41 5 67 67 SSE 5 7 30.09 1019 10 16.0934 N/A
3:36 am 03:36 Clear 50 10 43 6 76 76 Calm 30.09 1019 10 16.0934 N/A
3:55 am 03:55 Clear 50 10 43 6 76 76 Calm 30.09 1019 10 16.0934 N/A
4:16 am 04:16 Clear 50 10 41 5 71 71 Calm 30.09 1019 10 16.0934 N/A
4:36 am 04:36 Clear 50 10 41 5 71 71 Calm 30.09 1019 10 16.0934 N/A
4:56 am 04:56 Clear 48 9 46 8 94 94 N 3 6 30.09 1019 10 16.0934 N/A
5:16 am 05:16 Clear 46 8 46 8 100 100 Calm 30.09 1019 10 16.0934 N/A
5:36 am 05:36 Clear 48 9 N/A N/A Calm 30.09 1019 10 16.0934 N/A
5:56 am 05:56 Clear 48 9 N/A N/A Calm 30.09 1019 10 16.0934 N/A
6:16 am 06:16 Clear 48 9 N/A N/A Calm 30.06 1018 10 16.0934 N/A
6:36 am 06:36 Clear 48 9 N/A N/A Calm 30.06 1018 10 16.0934 N/A
6:56 am 06:56 Clear 48 9 N/A N/A Calm 30.06 1018 10 16.0934 N/A
7:15 am 07:15 Sunny 46 8 N/A N/A Calm 30.09 1019 10 16.0934 N/A
7:36 am 07:36 Sunny 48 9 N/A N/A Calm 30.09 1019 10 16.0934 N/A
7:56 am 07:56 Sunny 48 9 N/A N/A Calm 30.09 1019 10 16.0934 N/A
8:16 am 08:16 Sunny 52 11 N/A N/A Calm 30.09 1019 10 16.0934 N/A
8:36 am 08:36 Sunny 55 13 46 8 72 72 Calm 30.06 1018 7 11.26538 N/A
8:56 am 08:56 Sunny 59 15 46 8 63 63 Calm 30.06 1018 10 16.0934 N/A
9:15 am 09:15 Sunny 63 17 43 6 49 49 Calm 30.06 1018 10 16.0934 N/A
9:36 am 09:36 Sunny 66 19 36 2 32 32 SSE 3 6 30.06 1018 10 16.0934 N/A
9:56 am 09:56 Sunny 68 20 32 0 26 26 SSW 3 6 30.06 1018 10 16.0934 N/A
10:15 am 10:15 Sunny 70 21 30 -1 23 23 Calm 30.06 1018 10 16.0934 N/A
10:36 am 10:36 Sunny 70 21 28 -2 21 21 SSE 3 6 30.06 1018 10 16.0934 N/A
10:56 am 10:56 Sunny 72 22 28 -2 20 20 S 5 7 30.03 1017 10 16.0934 N/A
11:16 am 11:16 Sunny 72 22 28 -2 20 20 Calm 30.03 1017 10 16.0934 N/A
11:36 am 11:36 Sunny 72 22 27 -3 19 19 Calm 30.03 1017 10 16.0934 N/A
11:56 am 11:56 Sunny 73 23 28 -2 19 19 S 3 6 30.03 1017 10 16.0934 N/A
12:16 pm 12:16 Sunny 73 23 25 -4 16 16 Calm 30.03 1017 10 16.0934 N/A
12:36 pm 12:36 Sunny 73 23 28 -2 19 19 S 3 6 30.03 1017 10 16.0934 N/A
12:56 pm 12:56 Sunny 73 23 23 -5 15 15 Calm 30.03 1017 10 16.0934 N/A
1:16 pm 13:16 Sunny 73 23 25 -4 16 16 E 5 7 30.03 1017 10 16.0934 N/A
1:36 pm 13:36 Sunny 75 24 25 -4 15 15 E 6 9 30.03 1017 10 16.0934 N/A
1:55 pm 13:55 Sunny 77 25 23 -5 13 13 E 3 6 30.03 1017 10 16.0934 N/A
2:16 pm 14:16 Sunny 77 25 27 -3 15 15 Calm 30 1016 10 16.0934 N/A
2:36 pm 14:36 Sunny 77 25 23 -5 13 13 Calm 30 1016 10 16.0934 N/A
2:55 pm 14:55 Sunny 77 25 27 -3 15 15 E 6 9 30 1016 10 16.0934 N/A
3:16 pm 15:16 Sunny 77 25 27 -3 15 15 SE 7 11 30 1016 10 16.0934 N/A
3:36 pm 15:36 Sunny 75 24 28 -2 18 18 Calm 30 1016 10 16.0934 N/A
3:56 pm 15:56 Sunny 77 25 27 -3 15 15 ESE 9 15 30 1016 10 16.0934 N/A
4:16 pm 16:16 Sunny 75 24 28 -2 18 18 ESE 5 7 29.97 1015 10 16.0934 N/A
4:36 pm 16:36 Sunny 75 24 28 -2 18 18 E 5 7 29.97 1015 10 16.0934 N/A
4:56 pm 16:56 Sunny 75 24 30 -1 19 19 E 7 11 29.97 1015 10 16.0934 N/A
5:16 pm 17:16 Sunny 75 24 28 -2 18 18 E 8 13 29.97 1015 10 16.0934 N/A
5:35 pm 17:35 Sunny 75 24 30 -1 19 19 E 8 13 29.94 1014 10 16.0934 N/A
5:56 pm 17:56 Sunny 75 24 30 -1 19 19 ESE 7 11 29.97 1015 10 16.0934 N/A
6:16 pm 18:16 Sunny 75 24 30 -1 19 19 ESE 6 9 29.94 1014 10 16.0934 N/A
6:35 pm 18:35 Sunny 75 24 30 -1 19 19 ESE 8 13 29.94 1014 10 16.0934 N/A
6:56 pm 18:56 Sunny 75 24 30 -1 19 19 SE 8 13 29.94 1014 10 16.0934 N/A
7:16 pm 19:16 Sunny 75 24 32 0 21 21 ESE 6 9 29.94 1014 10 16.0934 N/A
7:35 pm 19:35 Sunny 75 24 32 0 21 21 SE 6 9 29.94 1014 10 16.0934 N/A
7:56 pm 19:56 Sunny 73 23 32 0 22 22 SE 6 9 29.94 1014 10 16.0934 N/A
8:16 pm 20:16 Sunny 70 21 36 2 29 29 SE 6 9 29.94 1014 10 16.0934 N/A
8:36 pm 20:36 Clear 70 21 36 2 29 29 ESE 5 7 29.94 1014 10 16.0934 N/A
8:56 pm 20:56 Clear 68 20 37 3 33 33 ESE 5 7 29.97 1015 10 16.0934 N/A
9:16 pm 21:16 Clear 66 19 41 5 40 40 ESE 6 9 29.97 1015 10 16.0934 N/A
9:36 pm 21:36 Clear 64 18 39 4 40 40 E 5 7 30 1016 10 16.0934 N/A
9:56 pm 21:56 Clear 63 17 41 5 45 45 E 5 7 29.97 1015 10 16.0934 N/A
10:16 pm 22:16 Clear 63 17 41 5 45 45 E 5 7 29.97 1015 10 16.0934 N/A
10:36 pm 22:36 Clear 63 17 43 6 49 49 ESE 6 9 29.97 1015 10 16.0934 N/A
10:56 pm 22:56 Clear 63 17 41 5 45 45 E 6 9 29.97 1015 10 16.0934 N/A
11:15 pm 23:15 Clear 63 17 41 5 45 45 E 7 11 29.97 1015 10 16.0934 N/A
11:36 pm 23:36 Clear 61 16 41 5 48 48 E 7 11 29.97 1015 10 16.0934 N/A
11:56 pm 23:56 Clear 61 16 43 6 52 52 ENE 8 13 29.97 1015 10 16.0934 N/A

Powered by AerisWeather